• In Lithuania
  • List of Countries
  • For 7 days
  • Water Temperature
  • Satellite Maps
  • Weather Map
  • Weather Widgets
  • user-avatar
    Login

    Hourly Weather Logrono

    Today, 21 October, Sunday

    Time Temperature Precipitation Wind Pressure Humidity
    00:00 +14°C° 0 mm 1 mps 731 mmHg 91%
    01:00 +14°C° 0 mm 1 mps 731 mmHg 91%
    02:00 +14°C° 0 mm 1 mps 731 mmHg 91%
    03:00 +14°C° 0 mm 1 mps 730 mmHg 91%
    04:00 +14°C° 0 mm 1 mps 730 mmHg 90%
    05:00 +13°C° 0 mm 0 mps 730 mmHg 90%
    06:00 +13°C° 0 mm 0 mps 730 mmHg 89%
    07:00 +15°C° 0 mm 0 mps 731 mmHg 82%
    08:00 +19°C° 0 mm 1 mps 731 mmHg 75%
    09:00 +20°C° 0 mm 1 mps 731 mmHg 68%
    10:00 +22°C° 0 mm 1 mps 731 mmHg 62%
    11:00 +23°C° 0 mm 1 mps 731 mmHg 55%
    12:00 +25°C° 0 mm 1 mps 731 mmHg 49%
    13:00 +25°C° 0 mm 1 mps 730 mmHg 48%
    14:00 +25°C° 0 mm 1 mps 730 mmHg 48%
    15:00 +25°C° 0 mm 2 mps 729 mmHg 47%
    16:00 +23°C° 0 mm 1 mps 729 mmHg 56%
    17:00 +21°C° 0 mm 1 mps 729 mmHg 64%
    18:00 +19°C° 0 mm 1 mps 729 mmHg 73%
    19:00 +18°C° 0 mm 1 mps 729 mmHg 77%
    20:00 +18°C° 0 mm 1 mps 729 mmHg 81%
    21:00 +16°C° 0 mm 2 mps 730 mmHg 85%
    22:00 +15°C° 0 mm 2 mps 730 mmHg 87%
    23:00 +15°C° 0 mm 2 mps 730 mmHg 88%

    Tomorrow, 22 October, Monday

    Time Temperature Precipitation Wind Pressure Humidity
    00:00 +14°C° 0 mm 2 mps 730 mmHg 90%
    01:00 +14°C° 0 mm 2 mps 730 mmHg 90%
    02:00 +13°C° 0 mm 2 mps 730 mmHg 89%
    03:00 +13°C° 0 mm 2 mps 730 mmHg 89%
    04:00 +13°C° 0 mm 2 mps 730 mmHg 88%
    05:00 +12°C° 0 mm 3 mps 730 mmHg 88%
    06:00 +11°C° 0 mm 3 mps 730 mmHg 87%
    07:00 +12°C° 0 mm 3 mps 730 mmHg 82%
    08:00 +14°C° 0 mm 4 mps 731 mmHg 77%
    09:00 +15°C° 0 mm 4 mps 731 mmHg 72%
    10:00 +16°C° 0 mm 5 mps 731 mmHg 65%
    11:00 +17°C° 0 mm 5 mps 732 mmHg 58%
    12:00 +19°C° 0 mm 5 mps 732 mmHg 52%
    13:00 +19°C° 0 mm 5 mps 732 mmHg 51%
    14:00 +19°C° 0 mm 5 mps 732 mmHg 50%
    15:00 +19°C° 0 mm 5 mps 731 mmHg 50%
    16:00 +17°C° 0 mm 4 mps 732 mmHg 58%
    17:00 +14°C° 0 mm 4 mps 732 mmHg 67%
    18:00 +12°C° 0 mm 3 mps 732 mmHg 75%
    19:00 +12°C° 0 mm 3 mps 733 mmHg 78%
    20:00 +11°C° 0 mm 3 mps 733 mmHg 81%
    21:00 +11°C° 0 mm 3 mps 733 mmHg 84%
    22:00 +11°C° 0 mm 3 mps 733 mmHg 85%
    23:00 +11°C° 0 mm 3 mps 733 mmHg 87%

    Day after tomorrow, 23 October, Tuesday

    Time Temperature Precipitation Wind Pressure Humidity
    00:00 +10°C° 0 mm 3 mps 733 mmHg 88%
    01:00 +10°C° 0 mm 3 mps 733 mmHg 88%
    02:00 +10°C° 0 mm 3 mps 733 mmHg 89%
    03:00 +10°C° 0 mm 3 mps 733 mmHg 89%
    04:00 +10°C° 0 mm 3 mps 733 mmHg 89%
    05:00 +9°C° 0 mm 3 mps 733 mmHg 89%
    06:00 +9°C° 0 mm 3 mps 733 mmHg 89%
    07:00 +11°C° 0 mm 3 mps 734 mmHg 82%
    08:00 +12°C° 0 mm 3 mps 734 mmHg 75%
    09:00 +13°C° 0 mm 4 mps 734 mmHg 68%
    10:00 +14°C° 0 mm 4 mps 734 mmHg 62%
    11:00 +17°C° 0 mm 4 mps 734 mmHg 55%
    12:00 +18°C° 0 mm 4 mps 734 mmHg 48%
    13:00 +18°C° 0 mm 4 mps 734 mmHg 49%
    14:00 +18°C° 0 mm 4 mps 733 mmHg 49%
    15:00 +18°C° 0 mm 4 mps 733 mmHg 50%
    16:00 +16°C° 0 mm 3 mps 733 mmHg 59%
    17:00 +13°C° 0 mm 3 mps 733 mmHg 69%
    18:00 +11°C° 0 mm 3 mps 733 mmHg 78%
    19:00 +12°C° 0 mm 2 mps 734 mmHg 81%
    20:00 +12°C° 0 mm 2 mps 734 mmHg 85%
    21:00 +10°C° 0 mm 2 mps 734 mmHg 88%
    22:00 +10°C° 0 mm 2 mps 734 mmHg 88%
    23:00 +10°C° 0 mm 2 mps 734 mmHg 88%

    24 October, Wednesday

    Time Temperature Precipitation Wind Pressure Humidity
    00:00 +10°C° 0 mm 2 mps 734 mmHg 88%
    01:00 +10°C° 0 mm 2 mps 734 mmHg 88%
    02:00 +10°C° 0 mm 2 mps 734 mmHg 89%
    03:00 +9°C° 0 mm 2 mps 734 mmHg 89%
    04:00 +9°C° 0 mm 2 mps 734 mmHg 88%
    05:00 +9°C° 0 mm 2 mps 734 mmHg 87%
    06:00 +9°C° 0 mm 3 mps 734 mmHg 87%
    07:00 +11°C° 0 mm 3 mps 734 mmHg 80%
    08:00 +12°C° 0 mm 3 mps 734 mmHg 72%
    09:00 +13°C° 0 mm 3 mps 734 mmHg 65%
    10:00 +16°C° 0 mm 3 mps 733 mmHg 56%
    11:00 +18°C° 0 mm 4 mps 733 mmHg 47%
    12:00 +19°C° 0 mm 4 mps 733 mmHg 38%
    13:00 +20°C° 0 mm 4 mps 733 mmHg 39%
    14:00 +20°C° 0 mm 4 mps 732 mmHg 39%
    15:00 +20°C° 0 mm 4 mps 732 mmHg 39%
    16:00 +18°C° 0 mm 3 mps 731 mmHg 47%
    17:00 +14°C° 0 mm 3 mps 731 mmHg 55%
    18:00 +13°C° 0 mm 2 mps 731 mmHg 62%
    19:00 +13°C° 0 mm 2 mps 731 mmHg 65%
    20:00 +12°C° 0 mm 2 mps 731 mmHg 68%
    21:00 +10°C° 0 mm 2 mps 731 mmHg 70%
    22:00 +10°C° 0 mm 2 mps 731 mmHg 72%
    23:00 +10°C° 0 mm 2 mps 731 mmHg 73%

    25 October, Thursday

    Time Temperature Precipitation Wind Pressure Humidity
    00:00 +10°C° 0 mm 2 mps 730 mmHg 75%
    01:00 +9°C° 0 mm 2 mps 730 mmHg 76%
    02:00 +9°C° 0 mm 2 mps 730 mmHg 78%
    03:00 +9°C° 0 mm 2 mps 729 mmHg 80%
    04:00 +10°C° 0 mm 1 mps 729 mmHg 81%
    05:00 +10°C° 0 mm 1 mps 729 mmHg 82%
    06:00 +10°C° 0 mm 1 mps 729 mmHg 83%
    07:00 +12°C° 0 mm 1 mps 729 mmHg 77%
    08:00 +14°C° 0 mm 1 mps 729 mmHg 71%
    09:00 +16°C° 0 mm 1 mps 729 mmHg 65%
    10:00 +19°C° 0 mm 1 mps 729 mmHg 59%
    11:00 +20°C° 0 mm 1 mps 728 mmHg 52%
    12:00 +22°C° 0 mm 1 mps 728 mmHg 45%
    13:00 +23°C° 0 mm 1 mps 728 mmHg 44%
    14:00 +23°C° 0 mm 1 mps 727 mmHg 43%
    15:00 +24°C° 0 mm 1 mps 727 mmHg 42%
    16:00 +21°C° 0 mm 1 mps 726 mmHg 50%
    17:00 +19°C° 0 mm 1 mps 726 mmHg 58%
    18:00 +16°C° 0 mm 1 mps 726 mmHg 66%
    19:00 +15°C° 0 mm 1 mps 726 mmHg 66%
    20:00 +15°C° 0 mm 1 mps 726 mmHg 66%
    21:00 +14°C° 0 mm 1 mps 726 mmHg 66%
    22:00 +14°C° 0 mm 1 mps 726 mmHg 65%
    23:00 +14°C° 0 mm 1 mps 725 mmHg 65%

    26 October, Friday

    Time Temperature Precipitation Wind Pressure Humidity
    00:00 +14°C° 0 mm 1 mps 725 mmHg 64%
    01:00 +13°C° 0 mm 1 mps 725 mmHg 64%
    02:00 +13°C° 0 mm 1 mps 724 mmHg 64%
    03:00 +13°C° 0 mm 1 mps 724 mmHg 64%
    04:00 +13°C° 0 mm 1 mps 724 mmHg 65%
    05:00 +13°C° 0 mm 1 mps 724 mmHg 66%
    06:00 +12°C° 0 mm 1 mps 724 mmHg 66%
    07:00 +14°C° 0 mm 1 mps 724 mmHg 61%
    08:00 +16°C° 0 mm 1 mps 724 mmHg 55%
    09:00 +18°C° 0 mm 1 mps 724 mmHg 50%
    10:00 +20°C° 0 mm 1 mps 724 mmHg 46%
    11:00 +21°C° 0 mm 1 mps 724 mmHg 43%
    12:00 +21°C° 0 mm 2 mps 723 mmHg 40%
    13:00 +21°C° 0 mm 2 mps 723 mmHg 41%
    14:00 +21°C° 0 mm 2 mps 722 mmHg 42%
    15:00 +21°C° 0 mm 2 mps 722 mmHg 43%
    16:00 +19°C° 0 mm 2 mps 721 mmHg 52%
    17:00 +18°C° 0 mm 1 mps 721 mmHg 61%
    18:00 +15°C° 0 mm 1 mps 721 mmHg 70%
    19:00 +15°C° 0.5 mm 1 mps 721 mmHg 74%
    20:00 +14°C° 0.5 mm 2 mps 721 mmHg 78%
    21:00 +13°C° 0.5 mm 3 mps 721 mmHg 81%
    22:00 +12°C° 1.1 mm 3 mps 721 mmHg 83%
    23:00 +11°C° 1.1 mm 4 mps 721 mmHg 85%
    Show more